Location: Mansoura
(31.0409°N, 31.3785°E)
Time: 17:30:26
(UTC+03:00)

Tiangong - Visible Passes

Search period start: 20 September 2024 00:00
Search period end: 30 September 2024 00:00
Orbit: 373 x 377 km, 41.5° (Epoch: 18 September)

Date Brightness Start Highest point End Pass type
(mag) Time Alt. Az. Time Alt. Az. Time Alt. Az.
20 Sep -0.3 19:30:48 10° W 19:33:30 26° NNW 19:36:12 10° NE visible
21 Sep 0.5 20:05:46 10° NW 20:07:36 15° N 20:09:12 11° NNE visible
22 Sep 0.8 20:40:30 10° NNW 20:41:12 12° NNW 20:41:12 12° NNW visible
23 Sep 0.5 19:36:59 10° NW 19:38:29 13° N 19:39:58 10° NNE visible
24 Sep 0.4 20:11:05 10° NNW 20:12:32 13° N 20:12:54 12° NNE visible
25 Sep 0.9 20:44:09 10° NNW 20:44:38 12° NNW 20:44:38 12° NNW visible
26 Sep 0.2 19:41:12 10° NNW 19:42:58 14° N 19:44:20 11° NE visible
27 Sep -0.3 20:14:01 10° NW 20:15:59 23° N 20:15:59 23° N visible
28 Sep -0.1 19:10:56 10° NNW 19:13:04 17° NNE 19:15:12 10° ENE visible
28 Sep 0.9 20:46:54 10° WNW 20:47:38 16° NW 20:47:38 16° NW visible
29 Sep -1.3 19:43:36 10° NW 19:46:30 36° NNE 19:47:18 30° ENE visible
